Location: Eaton
(41.3139°N, 82.0207°W)
Time: 01:19:04
(UTC+00:00)

Resurs 01 Rocket - Pass Details

Date: 17 June 2021
Orbit: 635 x 643 km, 97.9° (Epoch: 02 August)

Event Time Altitude Azimuth Distance (km) Brightness Sun altitude
Exits shadow 01:56:21 - 160° (SSE) 2,197 3.8 -8.7°
Reaches altitude 10° 01:56:48 10° 160° (SSE) 2,015 3.6 -8.8°
Maximum altitude 02:01:11 75° 76° (ENE) 662 1.6 -9.4°
Drops below altitude 10° 02:05:35 10° 351° (N) 2,030 5.1 -10.0°
Sets 02:07:48 0° 350° (N) 2,943 6.0 -10.3°
